Regional Weather Roundup
Issued by NWS

Home | Current Version | Previous Version | Graphics & Text | Print | Product List | Glossary On
Versions: 1 2 3 4 5 6 7 8 9 10 11 12 13 14 15 16 17 18 19 20 21 22 23 24 25 26 27 28 29 30 31 32 33 34 35 36 37 38 39 40 41 42 43 44 45 46 47 48 49 50
000
ASUS43 KFSD 070402
RWRSD

WEATHER ROUNDUP FOR SOUTH DAKOTA
NATIONAL WEATHER SERVICE SIOUX FALLS SD
1100 PM CDT WED MAY 06 2015

NOTE: "FAIR" INDICATES FEW OR NO CLOUDS BELOW 12,000 FEET WITH NO
SIGNIFICANT WEATHER AND/OR OBSTRUCTIONS TO VISIBILITY.


SDZ001>005-009-010-012>017-070500-
NORTHWEST AND NORTH CENTRAL SOUTH DAKOTA

CITY           SKY/WX    TMP DP  RH WIND       PRES   REMARKS
BUFFALO          N/A     49  45  86 NW25G33   29.68R
FAITH            N/A     55  52  89 NW18G26   29.62F
MOBRIDGE       CLOUDY    60  58  92 SE3       29.61R
$$

SDZ012>016-024>037-041>051-057-063-072>074-070500-
SOUTHWEST AND SOUTH CENTRAL SOUTH DAKOTA

CITY           SKY/WX    TMP DP  RH WIND       PRES   REMARKS
RAPID CTY ARPT CLOUDY    50  46  86 NW30G39   29.72R
PIERRE         CLOUDY    58  55  90 NE6       29.61S
CUSTER         LGT RAIN  44  39  82 N10G16    29.76R
PHILIP         LGT RAIN  58  57  97 W7        29.64R
PINE RIDGE     LGT RAIN  50  47  89 N16G26    29.70R
WINNER         FAIR      58  55  90 SE7       29.61S
$$

SDZ004>011-016>023-039-040-070500-
NORTHEAST SOUTH DAKOTA

CITY           SKY/WX    TMP DP  RH WIND       PRES   REMARKS
ABERDEEN       LGT RAIN  61  58  90 S13       29.65R
WATERTOWN      PTCLDY    63  59  87 SE17G24   29.69F
BROOKINGS      CLOUDY    64  59  82 S23G33    29.72S
SISSETON         N/A     62  60  93 S12       29.68S
$$

SDZ017-020-022-023-036>040-048>070-070500-
SOUTHEAST SOUTH DAKOTA

CITY           SKY/WX    TMP DP  RH WIND       PRES   REMARKS
SIOUX FALLS    LGT RAIN  65  60  84 SE21G33   29.67F
HURON          LGT RAIN  61  60  97 S13G20    29.64F
MITCHELL       LGT RAIN  63  62  97 S7        29.62F FOG
YANKTON        CLOUDY    64  59  82 SE16G26   29.63F
$$

ABBREVIATIONS USED IN REMARKS
   TC - TEMPERATURE IN CELSIUS
  WCI - WIND CHILL INDEX
   HX - HEAT INDEX
  VSB - VISIBILITY




USA.gov is the U.S. government's official web portal to all federal, state and local government web resources and services.